Regional Weather Roundup
Issued by NWS Memphis, TN

Home | Current Version | Previous Version | Text Only | Print | Product List | Glossary On
Versions: 1 2 3 4 5 6 7 8 9 10 11 12 13 14 15 16 17 18 19 20 21 22 23 24 25 26 27 28 29 30 31 32 33 34 35 36 37 38 39 40 41 42 43 44 45 46 47 48 49 50
000
ASUS44 KMEG 250200
RWRMEG
MEMPHIS CWA HOURLY WEATHER ROUNDUP
NATIONAL WEATHER SERVICE MEMPHIS TN
900 PM CDT SUN SEP 24 2017

...WEST TENNESSEE...

CITY           SKY/WX    TMP DP  RH WIND       PRES   REMARKS
MEMPHIS INTL   PTCLDY    77  68  73 CALM      29.99R
NWS MEMPHIS      N/A     73 N/A N/A MISG        N/A
JACKSON        CLEAR     70  69  97 S3        30.00R


...EASTERN ARKANSAS...

CITY           SKY/WX    TMP DP  RH WIND       PRES   REMARKS
JONESBORO      CLEAR     74  69  85 NE3       29.98R
WEST MEMPHIS   CLEAR     72  70  93 CALM      29.96R
BATESVILLE     CLEAR     77  66  68 SE6       29.98R
NEWPORT        PTCLDY    71  69  93 CALM      29.97S
BLYTHEVILLE    CLEAR     73  70  90 NE3       29.99R
SEARCY         CLEAR     77  70  79 E5        29.98R
STUTTGART      CLEAR     80  68  66 E5        29.96R
PINE BLUFF     CLEAR     74  67  78 E3        29.94R
MONTICELLO     CLEAR     74  69  85 NE3       29.94R


...NORTH MISSISSIPPI...

CITY           SKY/WX    TMP DP  RH WIND       PRES   REMARKS
TUPELO         CLEAR     76  66  71 CALM      29.98R
TUNICA           N/A    N/A N/A N/A CALM      29.98R
CLARKSDALE       N/A     77  73  88 NE3       29.96R
GREENWOOD      CLEAR     77  67  71 E7        29.95R
COLUMBUS       CLEAR     73  70  89 CALM      29.97R
STARKVILLE     CLEAR     72  68  88 CALM      29.98R


...SOUTHEAST MISSOURI...

CITY           SKY/WX    TMP DP  RH WIND       PRES   REMARKS
MALDEN         CLEAR     77  64  65 E3        30.00R
WEST PLAINS    PTCLDY    71  64  78 S6        30.02S
POPLAR BLUFF   CLEAR     70  67  90 NE3       29.99R
CAPE GIRARDEAU CLOUDY    73  65  75 SE7       29.99R


...NORTHWEST ALABAMA...

CITY           SKY/WX    TMP DP  RH WIND       PRES   REMARKS
MUSCLE SHOALS  CLEAR     70  66  87 CALM      30.01S


...MIDDLE TENNESSEE...

CITY           SKY/WX    TMP DP  RH WIND       PRES   REMARKS
NASHVILLE      PTCLDY    77  66  68 S3        30.02S
CLARKSVILLE    CLEAR     71  67  87 CALM      30.02R


...WESTERN KENTUCKY...

CITY           SKY/WX    TMP DP  RH WIND       PRES   REMARKS
PADUCAH        CLEAR     72  63  73 CALM      29.99R
FORT CAMPBELL  CLEAR     72  70  95 N5        30.01R


...CENTRAL ARKANSAS...

CITY           SKY/WX    TMP DP  RH WIND       PRES   REMARKS
LITTLE ROCK    PTCLDY    78  67  68 E5        29.95R


SKY/WX REPORTED AS FAIR MEANS FEW OR NO CLOUDS BELOW
12 THOUSAND FEET.




USA.gov is the U.S. government's official web portal to all federal, state and local government web resources and services.